• en France
  • Liste des pays
  • À 7 jours
  • Température de l'eau
  • Carte satellitaire
  • Carte météo
  • Widgets météo
  • user-avatar
    Se connecter

    Météo par heure à Djambala

    Ce jour, 19 Février, Lundi

    Heure Température Précipitation Vent Pression Humidité
    00:00 +24°C° 0,9 mm 1 m/s 694 mmHg 82%
    01:00 +24°C° 0 mm 1 m/s 694 mmHg 84%
    02:00 +24°C° 2,1 mm 1 m/s 694 mmHg 85%
    03:00 +23°C° 2,1 mm 1 m/s 694 mmHg 85%
    04:00 +23°C° 2,1 mm 1 m/s 693 mmHg 86%
    05:00 +23°C° 1,2 mm 1 m/s 694 mmHg 86%
    06:00 +23°C° 1,2 mm 1 m/s 694 mmHg 87%
    07:00 +23°C° 1,2 mm 1 m/s 694 mmHg 87%
    08:00 +24°C° 0,6 mm 1 m/s 695 mmHg 83%
    09:00 +25°C° 0,6 mm 1 m/s 695 mmHg 78%
    10:00 +26°C° 0,6 mm 1 m/s 695 mmHg 74%
    11:00 +28°C° 1,3 mm 1 m/s 695 mmHg 69%
    12:00 +29°C° 1,3 mm 1 m/s 694 mmHg 64%
    13:00 +30°C° 1,3 mm 1 m/s 694 mmHg 58%
    14:00 +30°C° 0,5 mm 1 m/s 694 mmHg 59%
    15:00 +29°C° 0,5 mm 1 m/s 693 mmHg 60%
    16:00 +29°C° 0,5 mm 1 m/s 693 mmHg 61%
    17:00 +28°C° 1 mm 2 m/s 693 mmHg 69%
    18:00 +26°C° 1 mm 2 m/s 693 mmHg 76%
    19:00 +25°C° 1 mm 2 m/s 693 mmHg 84%
    20:00 +24°C° 0,4 mm 2 m/s 693 mmHg 85%
    21:00 +24°C° 0,4 mm 2 m/s 694 mmHg 86%
    22:00 +24°C° 0,4 mm 3 m/s 694 mmHg 87%
    23:00 +22°C° 0,4 mm 3 m/s 694 mmHg 88%

    Demain, 20 Février, Mardi

    Heure Température Précipitation Vent Pression Humidité
    00:00 +22°C° 0,4 mm 3 m/s 694 mmHg 89%
    01:00 +22°C° 0,4 mm 3 m/s 694 mmHg 90%
    02:00 +21°C° 0,2 mm 2 m/s 693 mmHg 91%
    03:00 +21°C° 0,2 mm 2 m/s 693 mmHg 92%
    04:00 +21°C° 0,2 mm 2 m/s 693 mmHg 93%
    05:00 +21°C° 0,6 mm 2 m/s 693 mmHg 93%
    06:00 +21°C° 0,6 mm 2 m/s 694 mmHg 93%
    07:00 +21°C° 0,6 mm 2 m/s 694 mmHg 93%
    08:00 +21°C° 0,6 mm 2 m/s 694 mmHg 91%
    09:00 +23°C° 0,6 mm 2 m/s 695 mmHg 90%
    10:00 +23°C° 0,6 mm 2 m/s 695 mmHg 88%
    11:00 +24°C° 1,5 mm 2 m/s 695 mmHg 86%
    12:00 +24°C° 1,5 mm 2 m/s 694 mmHg 85%
    13:00 +24°C° 1,5 mm 2 m/s 694 mmHg 83%
    14:00 +25°C° 0,4 mm 2 m/s 693 mmHg 80%
    15:00 +26°C° 0,4 mm 2 m/s 692 mmHg 77%
    16:00 +26°C° 0,4 mm 2 m/s 692 mmHg 75%
    17:00 +25°C° 0 mm 1 m/s 692 mmHg 79%
    18:00 +24°C° 0 mm 1 m/s 692 mmHg 83%
    19:00 +24°C° 0 mm 1 m/s 692 mmHg 87%
    20:00 +23°C° 0 mm 1 m/s 693 mmHg 88%
    21:00 +23°C° 0 mm 1 m/s 693 mmHg 90%
    22:00 +23°C° 0 mm 1 m/s 694 mmHg 91%
    23:00 +23°C° 0 mm 1 m/s 694 mmHg 92%

    Après-demain, 21 Février, Mercredi

    Heure Température Précipitation Vent Pression Humidité
    00:00 +21°C° 0 mm 2 m/s 693 mmHg 94%
    01:00 +21°C° 0 mm 2 m/s 693 mmHg 95%
    02:00 +21°C° 0,2 mm 2 m/s 693 mmHg 96%
    03:00 +22°C° 0,2 mm 1 m/s 693 mmHg 96%
    04:00 +21°C° 0,2 mm 1 m/s 693 mmHg 97%
    05:00 +22°C° 0,1 mm 1 m/s 693 mmHg 96%
    06:00 +21°C° 0,1 mm 2 m/s 694 mmHg 95%
    07:00 +21°C° 0,1 mm 2 m/s 694 mmHg 94%
    08:00 +23°C° 0,1 mm 2 m/s 695 mmHg 90%
    09:00 +24°C° 0,1 mm 2 m/s 695 mmHg 86%
    10:00 +25°C° 0,1 mm 3 m/s 695 mmHg 81%
    11:00 +26°C° 0,1 mm 3 m/s 695 mmHg 74%
    12:00 +28°C° 0,1 mm 3 m/s 694 mmHg 67%
    13:00 +29°C° 0,1 mm 3 m/s 694 mmHg 60%
    14:00 +29°C° 0 mm 3 m/s 693 mmHg 59%
    15:00 +30°C° 0 mm 3 m/s 692 mmHg 58%
    16:00 +30°C° 0 mm 3 m/s 691 mmHg 56%
    17:00 +29°C° 0 mm 2 m/s 692 mmHg 62%
    18:00 +27°C° 0 mm 2 m/s 692 mmHg 68%
    19:00 +26°C° 0 mm 2 m/s 692 mmHg 74%
    20:00 +25°C° 0,1 mm 2 m/s 693 mmHg 77%
    21:00 +25°C° 0,1 mm 2 m/s 693 mmHg 81%
    22:00 +24°C° 0,1 mm 2 m/s 694 mmHg 84%
    23:00 +24°C° 0,1 mm 2 m/s 693 mmHg 86%

    22 Février, Jeudi

    Heure Température Précipitation Vent Pression Humidité
    00:00 +23°C° 0,1 mm 2 m/s 693 mmHg 88%
    01:00 +23°C° 0,1 mm 2 m/s 692 mmHg 90%
    02:00 +23°C° 0 mm 2 m/s 692 mmHg 91%
    03:00 +21°C° 0 mm 2 m/s 692 mmHg 92%
    04:00 +21°C° 0 mm 2 m/s 692 mmHg 93%
    05:00 +21°C° 0 mm 2 m/s 692 mmHg 93%
    06:00 +21°C° 0 mm 2 m/s 693 mmHg 93%
    07:00 +21°C° 0 mm 2 m/s 693 mmHg 93%
    08:00 +24°C° 0 mm 2 m/s 694 mmHg 85%
    09:00 +26°C° 0 mm 2 m/s 694 mmHg 78%
    10:00 +27°C° 0 mm 2 m/s 695 mmHg 71%
    11:00 +29°C° 0,9 mm 2 m/s 694 mmHg 65%
    12:00 +30°C° 0,9 mm 2 m/s 693 mmHg 59%
    13:00 +31°C° 0,9 mm 1 m/s 693 mmHg 53%
    14:00 +31°C° 0 mm 1 m/s 692 mmHg 51%
    15:00 +32°C° 0 mm 1 m/s 692 mmHg 49%
    16:00 +32°C° 0 mm 1 m/s 691 mmHg 47%
    17:00 +31°C° 0 mm 1 m/s 692 mmHg 51%
    18:00 +29°C° 0 mm 1 m/s 692 mmHg 56%
    19:00 +28°C° 0 mm 1 m/s 692 mmHg 60%
    20:00 +27°C° 0 mm 1 m/s 692 mmHg 62%
    21:00 +27°C° 0 mm 1 m/s 692 mmHg 65%
    22:00 +26°C° 0 mm 1 m/s 693 mmHg 67%
    23:00 +26°C° 0 mm 1 m/s 692 mmHg 69%

    23 Février, Vendredi

    Heure Température Précipitation Vent Pression Humidité
    00:00 +25°C° 0 mm 1 m/s 691 mmHg 71%
    01:00 +25°C° 0 mm 1 m/s 691 mmHg 73%
    02:00 +25°C° 0 mm 1 m/s 691 mmHg 74%
    03:00 +24°C° 0 mm 1 m/s 691 mmHg 76%
    04:00 +24°C° 0 mm 1 m/s 690 mmHg 77%
    05:00 +24°C° 0 mm 1 m/s 691 mmHg 77%
    06:00 +24°C° 0 mm 1 m/s 692 mmHg 78%
    07:00 +24°C° 0 mm 1 m/s 692 mmHg 79%
    08:00 +26°C° 0 mm 1 m/s 693 mmHg 71%
    09:00 +28°C° 0 mm 1 m/s 694 mmHg 64%
    10:00 +30°C° 0 mm 2 m/s 694 mmHg 57%
    11:00 +31°C° 0 mm 2 m/s 693 mmHg 54%
    12:00 +32°C° 0 mm 1 m/s 693 mmHg 52%
    13:00 +32°C° 0 mm 1 m/s 692 mmHg 49%
    14:00 +32°C° 0 mm 1 m/s 692 mmHg 49%
    15:00 +33°C° 0 mm 1 m/s 691 mmHg 48%
    16:00 +33°C° 0 mm 1 m/s 691 mmHg 47%
    17:00 +31°C° 0 mm 1 m/s 691 mmHg 51%
    18:00 +30°C° 0 mm 1 m/s 691 mmHg 55%
    19:00 +29°C° 0 mm 1 m/s 691 mmHg 58%
    20:00 +28°C° 0,2 mm 1 m/s 692 mmHg 61%
    21:00 +28°C° 0,2 mm 1 m/s 692 mmHg 64%
    22:00 +27°C° 0,2 mm 1 m/s 692 mmHg 66%
    23:00 +26°C° 0,8 mm 1 m/s 692 mmHg 71%

    24 Février, Samedi

    Heure Température Précipitation Vent Pression Humidité
    00:00 +26°C° 0,8 mm 1 m/s 692 mmHg 76%
    01:00 +25°C° 0,8 mm 1 m/s 692 mmHg 80%
    02:00 +24°C° 0,5 mm 1 m/s 692 mmHg 82%
    03:00 +24°C° 0,5 mm 1 m/s 692 mmHg 85%
    04:00 +24°C° 0,5 mm 1 m/s 692 mmHg 87%
    05:00 +24°C° 0 mm 1 m/s 693 mmHg 87%
    06:00 +24°C° 0 mm 1 m/s 693 mmHg 87%
    07:00 +24°C° 0 mm 1 m/s 694 mmHg 87%
    08:00 +25°C° 0 mm 1 m/s 694 mmHg 82%
    09:00 +26°C° 0 mm 1 m/s 694 mmHg 76%
    10:00 +28°C° 0 mm 1 m/s 695 mmHg 71%
    11:00 +29°C° 0 mm 1 m/s 694 mmHg 65%
    12:00 +31°C° 0 mm 1 m/s 694 mmHg 59%
    13:00 +31°C° 0 mm 0 m/s 693 mmHg 53%
    14:00 +30°C° 0,4 mm 0 m/s 693 mmHg 54%
    15:00 +32°C° 0,4 mm 1 m/s 692 mmHg 54%
    16:00 +31°C° 0,4 mm 1 m/s 692 mmHg 55%
    17:00 +30°C° 1,3 mm 1 m/s 692 mmHg 62%
    18:00 +28°C° 1,3 mm 1 m/s 692 mmHg 70%
    19:00 +26°C° 1,3 mm 1 m/s 692 mmHg 78%
    20:00 +26°C° 0,6 mm 2 m/s 693 mmHg 80%
    21:00 +25°C° 0,6 mm 2 m/s 693 mmHg 82%
    22:00 +25°C° 0,6 mm 2 m/s 694 mmHg 84%
    23:00 +24°C° 0,2 mm 3 m/s 694 mmHg 85%
    Voir plus